Regional Weather Roundup
Issued by NWS

Home | Current Version | Previous Version | Text Only | Print | Product List | Glossary On
Versions: 1 2 3 4 5 6 7 8 9 10 11 12 13 14 15 16 17 18 19 20 21 22 23 24 25 26 27 28 29 30 31 32 33 34 35 36 37 38 39 40 41 42 43 44 45 46 47 48 49
000
ASUS46 KSEW 231010
RWRWA

WASHINGTON REGIONAL WEATHER ROUNDUP
NATIONAL WEATHER SERVICE SEATTLE WA
300 AM PDT TUE SEP 23 2014

NOTE:"FAIR" INDICATES FEW OR NO CLOUDS BELOW 12,000 FEET WITH NO
SIGNIFICANT WEATHER AND/OR OBSTRUCTIONS TO VISIBILITY.

WAZ505-507>509-231100-
SEATTLE, TACOMA, EVERETT, AND VICINITY

CITY           SKY/WX    TMP DP  RH WIND       PRES   REMARKS
EVERETT        MOCLDY    62  55  77 VRB3      29.89F
BOEING FIELD   LGT RAIN  64  58  80 SE6       29.87F
RENTON         LGT RAIN  61  60  97 VRB3      29.87F VSB 1/4
SEATAC AIRPORT CLOUDY    62  57  83 E5        29.88F
JBLM-MCCHORD   CLOUDY    59  59 100 S3        29.88F
PUYALLUP       NOT AVBL
JBLM-FT LEWIS  CLOUDY    59  58  97 S7        29.88F
TACOMA NARROWS LGT RAIN  59  57  93 CALM      29.87F
$$

WAZ001-503-506-510-514-515-231100-
NORTH INTERIOR

CITY           SKY/WX    TMP DP  RH WIND       PRES   REMARKS
BELLINGHAM     MOCLDY    57  55  93 CALM      29.88F
FRIDAY HARBOR    N/A    N/A N/A N/A MISG      29.88F
EASTSOUND      MOCLDY    55  55 100 CALM      29.87S
PORT ANGELES     N/A     54  51  90 SW3       29.87F
NAS WHIDBEY    PTCLDY    59  55  87 E8        29.87F
BURLINGTON     NOT AVBL
$$

WAZ020-022-039-040-504-511-512-231100-
SOUTHWEST INTERIOR

CITY           SKY/WX    TMP DP  RH WIND       PRES   REMARKS
SHELTON        CLOUDY    56  55  97 CALM      29.88S
OLYMPIA        LGT RAIN  58  57  97 W3        29.90F
CHEHALIS       LGT RAIN  59  59 100 CALM      29.89F
KELSO          CLOUDY    57  54  88 CALM      29.91F
VANCOUVER      CLOUDY    62  58  86 E3        29.88F
SCAPPOOSE, OR  MOCLDY    57  56  96 CALM      29.88F
PORTLAND, OR   CLOUDY    62  58  86 E5        29.88F
$$

WAZ021-516-517-231100-
WASHINGTON COAST

CITY           SKY/WX    TMP DP  RH WIND       PRES   REMARKS
FORKS          CLOUDY    58  57  97 CALM      29.85F
HOQUIAM        CLOUDY    59  58  96 NE5       29.88F FOG
ASTORIA, OR    LGT RAIN  59  57  93 CALM      29.85F
$$

WAZ019-023-024-040-518-519-231100-
CASCADE MOUNTAINS AND COLUMBIA GORGE

CITY           SKY/WX    TMP DP  RH WIND       PRES   REMARKS
STAMPEDE PASS  NOT AVBL
TROUTDALE, OR  CLOUDY    60  56  86 CALM      29.88F
THE DALLES, OR PTCLDY    63  52  67 SE5       29.88F
$$

WAZ026-027-041>044-520-521-231100-
EAST SLOPES

CITY           SKY/WX    TMP DP  RH WIND       PRES   REMARKS
OMAK           MOCLDY    63  52  67 NW5       29.90R
WENATCHEE      MOCLDY    66  47  50 W5        29.88S
ELLENSBURG     MOCLDY    60  50  69 NE7       29.89F
YAKIMA         MOCLDY    63  50  62 W7        29.89F
$$

WAZ028-034-035-231100-
COLUMBIA BASIN

CITY           SKY/WX    TMP DP  RH WIND       PRES   REMARKS
EPHRATA        CLOUDY    63  52  67 N3        29.88F
MOSES LAKE     CLOUDY    69  55  60 S5        29.89F
PASCO          CLOUDY    66  63  90 E5        29.86F
HERMISTON, OR  MOCLDY    63  57  81 S6        29.86F
$$

WAZ036>038-231100-
NORTHEAST WASHINGTON

CITY           SKY/WX    TMP DP  RH WIND       PRES   REMARKS
SPOKANE GEIGER CLOUDY    63  54  72 S6        29.95F
SPOKANE FELTS  CLOUDY    64  55  72 CALM      29.95F
FAIRCHILD AFB  CLOUDY    63  52  67 E5        29.96S
COEURDALENE,ID CLOUDY    63  55  77 S15       29.99S
DEER PARK      CLOUDY    62  50  64 CALM      29.97F
$$

WAZ029>033-231100-
SOUTHEAST WASHINGTON

CITY           SKY/WX    TMP DP  RH WIND       PRES   REMARKS
PULLMAN        MOCLDY    59  55  87 E8        29.99F
LEWISTON, ID   MOCLDY    66  59  78 SE6       29.94F
WALLA WALLA    CLOUDY    66  59  78 E8        29.92S
PENDLETON, OR  MOCLDY    63  57  81 SE7       29.90F
$$


USA.gov is the U.S. government's official web portal to all federal, state and local government web resources and services.